This demonstration page uses our WeatherBlox Daily Observations layout. Learn more.

Left ArrowRight Arrow

39.51506, -84.39828

Hourly Observations for January 18, 2021

Temp ( °F °C ) Dew Point ( °F °C ) Humidity (%) Winds ( mph kmh ) Pressure ( in mb ) Visibility ( mi km ) Precip ( " mm )
12:15 am 00:15 Cloudy 30 -1 28 -2.3 91 91 SW 7 11 29.84 1010 10 16.0934 N/A
12:35 am 00:35 Cloudy 30 -1.1 28 -2.4 91 91 SW 7 11 29.84 1010 10 16.0934 N/A
12:55 am 00:55 Cloudy 30 -1.1 28 -2.5 90 90 SW 7 11 29.84 1010 10 16.0934 N/A
1:15 am 01:15 Cloudy 30 -1 28 -2.4 90 90 SW 7 11 29.84 1010 10 16.0934 N/A
1:35 am 01:35 Cloudy 30 -1.1 28 -2.5 90 90 WSW 8 13 29.84 1010 10 16.0934 N/A
1:55 am 01:55 Cloudy 30 -1.2 27 -2.6 90 90 SW 7 11 29.84 1010 10 16.0934 N/A
2:15 am 02:15 Cloudy 30 -1.1 27 -2.7 89 89 SW 8 13 29.84 1010 10 16.0934 N/A
2:35 am 02:35 Cloudy 30 -1.1 27 -2.7 89 89 SW 9 15 29.85 1011 10 16.0934 N/A
2:55 am 02:55 Cloudy 30 -1.1 27 -2.7 89 89 SW 8 13 29.86 1011 10 16.0934 N/A
3:15 am 03:15 Cloudy 30 -1.1 27 -2.7 89 89 SW 8 13 29.87 1011 10 16.0934 N/A
3:35 am 03:35 Cloudy with Light Snow 30 -1.1 27 -2.8 88 88 SW 10 17 29.86 1011 10 16.0934 N/A
3:55 am 03:55 Cloudy 30 -1.1 27 -2.7 89 89 SW 10 17 29.87 1011 10 16.0934 N/A
4:15 am 04:15 Cloudy 30 -1.1 28 -2.5 90 90 WSW 9 15 29.87 1011 10 16.0934 N/A
4:35 am 04:35 Cloudy 30 -1 28 -2.5 90 90 WSW 9 15 29.88 1012 10 16.0934 N/A
4:55 am 04:55 Cloudy 30 -1 28 -2.4 90 90 WSW 12 19 29.88 1012 10 16.0934 N/A
5:15 am 05:15 Cloudy 30 -1 28 -2.5 90 90 WSW 9 15 29.89 1012 10 16.0934 N/A
5:35 am 05:35 Cloudy 30 -0.9 28 -2.5 89 89 SW 8 13 29.89 1012 10 16.0934 N/A
5:55 am 05:55 Cloudy 31 -0.8 28 -2.5 88 88 W 10 17 29.9 1012 10 16.0934 N/A
6:15 am 06:15 Cloudy 30 -0.9 28 -2.5 89 89 W 8 13 29.9 1012 10 16.0934 N/A
6:35 am 06:35 Cloudy with Light Snow 31 -0.8 28 -2.5 88 88 WSW 7 11 29.91 1013 10 16.0934 N/A
6:55 am 06:55 Cloudy 31 -0.8 28 -2.4 89 89 WSW 7 11 29.91 1013 10 16.0934 N/A
7:15 am 07:15 Cloudy 31 -0.8 27 -2.6 88 88 WSW 10 17 29.93 1013 10 16.0934 N/A
7:35 am 07:35 Cloudy 31 -0.8 28 -2.5 88 88 WSW 7 11 29.93 1013 10 16.0934 N/A
7:55 am 07:55 Cloudy with Light Snow 30 -0.9 28 -2.5 89 89 WSW 10 17 29.94 1014 10 16.0934 N/A
8:15 am 08:15 Cloudy 31 -0.8 27 -2.6 88 88 WSW 8 13 29.95 1014 10 16.0934 N/A
8:35 am 08:35 Cloudy with Light Snow 31 -0.8 27 -2.8 86 86 WSW 8 13 29.96 1014 10 16.0934 N/A
8:55 am 08:55 Cloudy with Light Snow 30 -0.9 27 -3 86 86 WSW 13 20 29.97 1015 10 16.0934 N/A
9:15 am 09:15 Cloudy with Light Snow 30 -1.2 25 -3.9 82 82 WSW 14 22 29.98 1015 10 16.0934 N/A
9:35 am 09:35 Cloudy 30 -1.2 25 -4 82 82 WSW 16 26 29.99 1016 10 16.0934 N/A
9:55 am 09:55 Cloudy with Light Snow 30 -1.3 24 -4.2 81 81 WSW 14 22 30 1016 10 16.0934 N/A
10:15 am 10:15 Cloudy with Light Snow 30 -1.3 24 -4.2 81 81 WSW 12 19 30.01 1016 10 16.0934 N/A
10:35 am 10:35 Cloudy 30 -1.1 24 -4.2 80 80 WSW 14 22 30.02 1017 10 16.0934 N/A
10:55 am 10:55 Cloudy 30 -1.1 23 -4.9 76 76 WSW 14 22 30.03 1017 10 16.0934 N/A
11:15 am 11:15 Cloudy 30 -1 22 -5.6 71 71 WSW 14 22 30.03 1017 10 16.0934 N/A
11:35 am 11:35 Cloudy 30 -1.1 22 -5.3 73 73 SW 14 22 30.03 1017 10 16.0934 N/A
11:55 am 11:55 Cloudy 30 -0.9 22 -5.4 72 72 W 7 11 30.02 1017 10 16.0934 N/A
12:15 pm 12:15 Cloudy 31 -0.8 22 -5.3 72 72 W 9 15 30.02 1016 10 16.0934 N/A
12:35 pm 12:35 Cloudy 31 -0.7 23 -5 73 73 WSW 12 19 30.02 1016 10 16.0934 N/A
12:55 pm 12:55 Cloudy 31 -0.6 23 -5.1 72 72 WSW 9 15 30.01 1016 10 16.0934 N/A
1:15 pm 13:15 Cloudy 31 -0.6 24 -4.7 74 74 WSW 10 17 30.02 1016 10 16.0934 N/A
1:35 pm 13:35 Cloudy with Light Rain 31 -0.6 24 -4.5 75 75 SW 10 17 30.01 1016 10 16.0934 N/A
1:55 pm 13:55 Cloudy with Light Snow 31 -0.5 24 -4.4 75 75 SW 8 13 30.01 1016 10 16.0934 N/A
2:15 pm 14:15 Cloudy with Light Snow 31 -0.5 25 -3.9 78 78 SW 8 13 30.01 1016 10 16.0934 N/A
2:35 pm 14:35 Cloudy with Light Snow 31 -0.4 25 -3.8 78 78 SW 10 17 30.01 1016 10 16.0934 N/A
2:55 pm 14:55 Cloudy with Light Snow 31 -0.3 26 -3.5 79 79 SSW 10 17 30.01 1016 10 16.0934 N/A
3:15 pm 15:15 Cloudy with Light Snow 31 -0.3 27 -2.8 83 83 SSW 9 15 30.02 1016 10 16.0934 N/A
3:35 pm 15:35 Cloudy with Light Snow 32 -0.2 28 -2.3 86 86 SSW 14 22 30.03 1017 7 11.26538 N/A
3:55 pm 15:55 Cloudy with Light Snow 31 -0.3 28 -2 88 88 SW 12 19 30.04 1017 7 11.26538 N/A
4:15 pm 16:15 Cloudy with Light Snow 32 -0.2 29 -1.8 89 89 SSW 10 17 30.04 1017 10 16.0934 N/A
4:35 pm 16:35 Cloudy with Light Snow 32 -0.1 29 -1.7 89 89 SW 8 13 30.05 1017 10 16.0934 N/A
4:55 pm 16:55 Cloudy with Light Snow 32 0.1 29 -1.6 88 88 SSW 9 15 30.05 1018 10 16.0934 N/A
5:15 pm 17:15 Cloudy with Light Snow 32 0.2 29 -1.6 88 88 SW 13 20 30.06 1018 10 16.0934 N/A
5:35 pm 17:35 Cloudy with Light Snow 32 0.2 29 -1.6 88 88 SW 9 15 30.06 1018 10 16.0934 N/A
5:55 pm 17:55 Cloudy with Light Snow 32 0.2 29 -1.5 89 89 SSW 8 13 30.07 1018 10 16.0934 N/A
6:15 pm 18:15 Cloudy with Light Snow 33 0.4 29 -1.5 87 87 SSW 9 15 30.07 1018 10 16.0934 N/A
6:35 pm 18:35 Cloudy 33 0.3 29 -1.5 88 88 SW 9 15 30.08 1019 10 16.0934 N/A
6:55 pm 18:55 Cloudy 33 0.3 29 -1.4 89 89 SW 10 17 30.09 1019 10 16.0934 N/A
7:15 pm 19:15 Cloudy 33 0.3 29 -1.4 89 89 SW 8 13 30.1 1019 10 16.0934 N/A
7:35 pm 19:35 Cloudy 33 0.3 29 -1.4 89 89 SW 9 15 30.1 1019 10 16.0934 N/A
7:55 pm 19:55 Cloudy 33 0.3 30 -1.3 89 89 SW 9 15 30.11 1020 10 16.0934 N/A
8:15 pm 20:15 Cloudy 33 0.3 30 -1.3 89 89 SW 7 11 30.11 1020 10 16.0934 N/A
8:35 pm 20:35 Cloudy 33 0.3 30 -1.3 89 89 SW 8 13 30.11 1020 10 16.0934 N/A
8:55 pm 20:55 Cloudy 32 0.1 30 -1.3 90 90 SSW 3 6 30.11 1020 10 16.0934 N/A
9:15 pm 21:15 Cloudy 32 0.1 30 -1.3 90 90 SSW 6 9 30.11 1020 10 16.0934 N/A
9:35 pm 21:35 Cloudy 32 0.2 30 -1.3 90 90 N N/A 30.11 1020 10 16.0934 N/A
9:55 pm 21:55 Cloudy 32 undefined 30 -1.3 91 91 SSW 3 6 30.12 1020 10 16.0934 N/A
10:15 pm 22:15 Cloudy 32 0.1 30 -1.2 91 91 N N/A 30.11 1020 10 16.0934 N/A
10:35 pm 22:35 Cloudy 31 -0.3 29 -1.4 92 92 N N/A 30.13 1020 10 16.0934 N/A
10:55 pm 22:55 Cloudy 31 -0.4 29 -1.4 93 93 N N/A 30.13 1020 10 16.0934 N/A
11:15 pm 23:15 Cloudy 31 -0.5 29 -1.7 92 92 N N/A 30.14 1021 10 16.0934 N/A
11:35 pm 23:35 Cloudy 32 -0.1 29 -1.7 89 89 SW 3 6 30.13 1020 10 16.0934 N/A
11:55 pm 23:55 Cloudy 32 -0.1 29 -1.7 89 89 SW 6 9 30.13 1020 10 16.0934 N/A

Powered by AerisWeather